Regional Weather Roundup
Issued by NWS Upton, NY

Current Version | Previous Version | Text Only | Print | Product List | Glossary Off
Versions: 1 2 3 4 5 6 7 8 9 10 11 12 13 14 15 16 17 18 19 20 21 22 23 24 25 26
000 ASUS41 KOKX 270306 RWROKX Regional Weather Roundup National Weather Service New York NY 1100 PM EDT SAT MAY 26 2018 Note: "FAIR" indicates few or no clouds below 12,000 feet with no significant weather and/or obstructions to visibility. NYZ071-072-176-178-NJZ106-104-270400- New York City Metro Area CITY SKY/WX TMP DP RH WIND PRES REMARKS Central Park FAIR 80 64 58 CALM 29.89R Bronx Bot Gard N/A 73 64 73 CALM 29.89S Bronx Lehman C N/A 79 68 69 NW1 N/A LaGuardia Arpt MOCLDY 80 64 58 CALM 29.85S Queens College N/A 79 64 61 S5 N/A Kennedy Intl MOCLDY 73 65 75 SW5 29.87R Breezy Point N/A 73 N/A N/A W3 N/A Brooklyn Coll N/A 79 63 57 W2 N/A Staten Island N/A 75 66 73 S2 N/A Newark/Liberty MOCLDY 78 66 66 S3 29.86R Teterboro FAIR 79 66 64 CALM 29.85R $$ NYZ177-179-078>081-270400- Long Island New York CITY SKY/WX TMP DP RH WIND PRES REMARKS Jones Beach N/A 63 N/A N/A S6 N/A Wantagh N/A 66 64 94 SE2 N/A Hempstead N/A 73 66 78 CALM 29.89S Matinecock Pt N/A 70 N/A N/A E2 N/A Farmingdale FAIR 70 65 84 CALM 29.86S MacArthur/ISP MOCLDY 68 64 87 SE5 29.87R Stony Brook N/A 72 66 83 S1 N/A Shirley FAIR 66 64 93 S5 29.88R Mt Sinai Harb N/A 70 N/A N/A CALM N/A Westhampton FAIR 64 60 87 S3 29.90R East Hampton FAIR 62 60 92 CALM 29.88R Southold N/A 68 64 88 S3 N/A Montauk N/A 64 61 90 SE3 29.90R $$ NYZ052-065-067-270400- Hudson Valley CITY SKY/WX TMP DP RH WIND PRES REMARKS White Plains FAIR 73 67 81 NW6 29.87R Larchmont Harb N/A 68 N/A N/A MISG N/A Croton On Huds N/A 73 N/A N/A NW2 N/A Somers N/A N/A N/A N/A N2 N/A Brewster N/A 66 59 77 NW2 N/A Newburgh MOCLDY 75 63 64 CALM 29.88S Montgomery FAIR 69 63 81 CALM 29.86S Otisville N/A 68 63 83 S2 N/A Warwick N/A 68 63 83 SE1 N/A Suffern N/A 73 55 53 E2 N/A Poughkeepsie FAIR 72 62 71 N3 29.85S Albany CLOUDY 69 59 70 N12 29.91S $$ NJZ001-105-106-008-010-013-015-019>022-104-270400- New Jersey CITY SKY/WX TMP DP RH WIND PRES REMARKS Newark/Liberty MOCLDY 78 66 66 S3 29.86R Teterboro FAIR 79 66 64 CALM 29.85R Caldwell N/A N/A N/A N/A MISG N/A Somerville FAIR 71 70 96 NW3 29.85R Linden FAIR 78 66 67 CALM 29.86S Perth Amboy N/A 75 N/A N/A SW1 N/A Sussex FAIR 69 62 78 CALM 29.88R Andover N/A 71 62 73 CALM 29.88S Trenton FAIR 77 66 68 CALM 29.86S Millville FAIR 77 71 82 CALM 29.88R Atlantic City FAIR 76 69 79 S5 29.88S Wrightstown PTCLDY 74 68 83 SE5 29.85 Toms River FAIR 74 68 81 CALM 29.88S Belmar FAIR 73 66 78 S3 29.88R $$ PAZ047>061-062-071-270400- Eastern Pennsylvania CITY SKY/WX TMP DP RH WIND PRES REMARKS Philadelphia CLOUDY 74 71 91 S7 29.86F Allentown FAIR 78 68 71 SW5 29.87R Scranton CLOUDY 74 58 57 E7 29.88F $$ CTZ002-004>006-009-010-012-RIZ004-006-007-MAZ004-011-015-270400- Southern New England In CT CITY SKY/WX TMP DP RH WIND PRES REMARKS Bradley Intl MOCLDY 76 60 57 N14 29.89R Hartford FAIR 78 68 71 N3 29.88R Danbury FAIR 69 62 78 CALM 29.89S Wtrbury/Oxford FAIR 70 64 81 CALM 29.91R Norwalk Harbor N/A 68 N/A N/A N5 N/A Bridgeport FAIR 73 66 78 CALM 29.87R Meriden FAIR 72 67 84 CALM 29.87R New Haven FAIR 71 66 84 S3 29.87R Chester FAIR 73 68 83 CALM 29.89R Groton FAIR 64 63 96 CALM 29.87R Willimantic FAIR 73 59 61 NE10 29.92R In RI CITY SKY/WX TMP DP RH WIND PRES REMARKS Providence CLOUDY 70 58 65 NE12 29.94R Block Island FAIR 61 59 93 CALM 29.91R Westerly FAIR 69 66 90 CALM 29.90R In MA CITY SKY/WX TMP DP RH WIND PRES REMARKS Boston CLOUDY 61 59 93 NE6 29.97R Worcester FAIR 66 60 81 NE12 29.98R Westfield FAIR 73 59 61 NE13G23 29.93R Provincetown FAIR 58 54 86 NE8 29.95R Nantucket FAIR 58 58 100 SW6 29.92S $$ ANZ330-335-338-340-345-350-353-355-270400- Coastal Marine Observations STATION/POSITION TIME SKY/WX TEMP WIND PRES VSBY WAVE AIR SEA DIR/SP/G HT/PER (UTC) (F) (DEG/KT/KT) (MB) (MI) (FT/S) NY Harb Entrance 0250 68 62 80/ 2/ 6 1011.4 3/ 6 20 S Fire Island 0250 62 56 230/ 6/ 6 1011.5 3/ 5 23 SSW Montauk P 0250 58 55 210/ 10/ 10 1012.2 2/ 6 15 E Barnegat Li 0230 60 N/A 4/ 5 Hudson Canyon 0250 61 57 220/ 14/ 14 1012.0 4/ 6 Kings Point 0236 71 60 210/ 2/ 2 1011.9 Execution Rocks NOT AVBL Western LI Sound 0220 68 100/ 4/ 4 N/A 0 Central LI Sound 0245 63 70/ 4/ 4 N/A 1 Robbins Reef 0236 77 CALM / 1 1011.6 $$ >>>>>>>>>>>>>>>>>>>>>>>>>>>> KEY <<<<<<<<<<<<<<<<<<<<<<<<<<< > < > SKY/WX - Sky Condition/Present Weather < > TMP - Temperature in Fahrenheit < > DP - Dew Point in Fahrenheit < > RH - Relative Humidity in Percent < > WIND - Direction (from) and Speed in MPH < > PRES - Mean Sea Level Pressure (inches of Hg) < > WCI - Wind Chill Index < > VSB - Visibility in Miles < > HX - Heat Index < > TC - Temperature in Celsius < > VRB - Varibale Wind Direction < > < >>>>>>>>>>>>>>>>>>>>>>>>>>>> KEY <<<<<<<<<<<<<<<<<<<<<<<<<<<

USA.gov is the U.S. government's official web portal to all federal, state and local government web resources and services.